SL-16 DEB, 43369

Orbit data source: Space-Track

SL-16 DEB, 43369 is space debris in SSO originally from a launch on Mon, 10 Dec 2001 UTC launched from the Tyuratam Missile And Space Complex (TTMTR). Debris objects in space refer to the collection of defunct objects orbiting the Earth. Examples of debris include non-operational satellites, rocket bodies, and fragments generated from explosions, collisions, or faulty payload assembly.

Loading next visibility...
Identifier
43369, 2001-056N
Orbit
SSO
Last TLE update
11 months ago
Origin
Manufacturer
Unknown
Mission
Spacecraft
Bus & Motor
Unknown
Mass
Unknown
Launch date (UTC)
2001-12-10 (24 years ago)
Launch vehicle
Unknown
Launch site
Tyuratam Missile And Space Complex (TTMTR)
Object type
Payload
Rocket body
Debris
Shape & HBR
Unknown
Radar Cross Section
Small (<0.1 m²)

Expand to show TLE details & history

TLE from 11 months ago
0 SL-16 DEB
1 43369U 01056N   24205.35363231  .00009507  00000-0  40251-2 0  9991
2 43369  99.3226  52.6224 0082539 151.4412  24.2737 14.23840765531873
Epoch: 2024-07-23T08:29Z
TLE epoch observation values (Epoch: 2024-07-23T08:29:13.831Z)
Latitude
3.74783°
Longitude
164.35437°
Altitude
760.854 km
Speed
7.502 km/s
True Right ascension
15h 32m 56s
True Declination
3° 43' 32"
Sunlit
Object was in daylight at epoch
Visualization orbit readout
Latitude
-60.18088°
Longitude
7.71744°
Altitude
774.034 km
Speed
7.486 km/s
Apparent Right ascension
05h 54m 08s
Apparent Declination
-50° 54' 24"
Sunlit
Object is in daylight
Visualization observer readout
Local Sidereal Time
18:28:45
Azimuth
154.08° SSE
Elevation
-77.462°
Doppler factor
1
Orbital elements
Apogee altitude
868.903 km
Perigee altitude
750.25 km
Semi-major axis
7,187.713 km
Eccentricity
0.00825
Inclination
99.3226°
RAAN
52.6224°
Arg. of periapsis
151.4412°
True anomaly
Unknown
Mean anomaly
24.2737°
Eccentric anomaly
Unknown
Mean motion
3.5617 °/min
Orbital period
101.08 mins
BSTAR
0.0040251
Loading maneuver chart data...
Loading SW <> Apogee altitude chart data...
Loading historical data...
Loading historical data...
Loading historical data...
Loading historical data...
Loading historical data...
Loading historical data...
Loading historical data...

SL-16 DEB Visibility forecast

Observer location: undefined°, undefined°

Span
Click to sort rows by Start time (UTC) header in descending order
Start Az.
Max El. time (UTC)
Max El. Az.
Max El.
End time (UTC)
End Az.
9 mins2025-07-03 15:31:01.888Z157.375° SSE2025-07-03 15:35:01.888Z92.193° ESE44.226°2025-07-03 15:40:01.888Z349.149° N
6 mins2025-07-04 03:46:01.888Z56.679° ENE2025-07-04 03:48:01.888Z87.452° E23.604°2025-07-04 03:52:01.888Z146.397° SSE
8 mins2025-07-04 05:24:01.888Z352.934° N2025-07-04 05:28:01.888Z288.213° WNW31.431°2025-07-04 05:32:01.888Z229.053° WSW
|